Location: Clyde
(45.1830°S, 169.3170°E)
Time: 23:48:59
(UTC+13:00)

ISS - Pass Details

Date: 31 January 2019
Orbit: 403 x 411 km, 51.6° (Epoch: 23 February)

Event Time Altitude Azimuth Distance (km) Brightness Sun altitude
Exits shadow 04:34:59 13° 36° (NE) 1,303 -1.4 -17.6°
Maximum altitude 04:35:33 14° 47° (NE) 1,281 -1.3 -17.5°
Drops below altitude 10° 04:37:21 10° 80° (E) 1,495 -0.6 -17.3°
Sets 04:40:13 0° 106° (ESE) 2,364 1.0 -17.0°
